{"data":{"norad_id":53034,"epoch":"2026-05-25T03:22:27.054624Z","epoch_age_seconds":71674,"freshness":"FRESH","line1":"1 53034U 22076BA  26145.14059091  .00000926  00000+0  76296-4 0  9999","line2":"2 53034  53.2136  90.9678 0001352  83.2605 276.8541 15.08836584214661","mean_motion":15.08836584,"eccentricity":0.0001352,"inclination_deg":53.2136,"raan_deg":90.9678,"arg_perigee_deg":83.2605,"mean_anomaly_deg":276.8541,"bstar":7.6296e-5,"rev_number":21466,"period_min":95.437770748008,"perigee_km":538.81853148895,"apogee_km":540.68912916947,"semimajor_km":6917.8908303292,"source":"CELESTRAK","updated_at":"2026-05-25T13:38:17.284105Z"}}